Location: Festilli
(46.4000°N, 11.6667°E)
Time: 07:05:40
(UTC+00:00)

USA 308 - Pass Details

Date: 03 March 2021
Orbit: 568 x 576 km, 54.0° (Epoch: 16 April)

Event Time Altitude Azimuth Distance (km) Brightness Sun altitude
Rises 18:27:32 0° 285° (WNW) 2,777 8.2 -15.5°
Reaches altitude 10° 18:30:02 10° 297° (WNW) 1,878 6.7 -15.9°
Maximum altitude 18:33:47 29° 358° (N) 1,064 4.3 -16.5°
Enters shadow 18:36:00 19° 45° (NE) 1,405 4.5 -16.9°
